Location: Arboyeti
(42.1122°N, 44.6017°E)
Time: 19:22:53
(UTC+00:00)

SL-16 R/B - Pass Details

Date: 19 April 2021
Orbit: 985 x 1007 km, 99.5° (Epoch: 17 May)

Event Time Altitude Azimuth Distance (km) Brightness Sun altitude
Exits shadow 21:17:59 19° 78° (ENE) 2,195 4.4 -36.3°
Maximum altitude 21:19:33 21° 58° (ENE) 2,100 4.5 -36.2°
Drops below altitude 10° 21:23:59 10° 13° (NNE) 2,791 5.6 -36.1°
Sets 21:27:06 0° 358° (N) 3,746 6.5 -36.1°
